Weather History for Chillicothe, MO

Change the Weather History Date:

Monday, July 21, 2014

  Actual Average (KIRK) Record (KIRK)
Temperature  
Mean Temperature 80 °F 76 °F  
Max Temperature 91 °F 86 °F 109 °F (1934)
Min Temperature 69 °F 65 °F 50 °F (1970)
Degree Days  
Heating Degree Days 0 0  
Month to date heating degree days 0  
Since 1 June heating degree days 16  
Since 1 July heating degree days 0  
Cooling Degree Days 15 11  
Month to date cooling degree days 206  
Year to date cooling degree days 460  
Since 1 June cooling degree days 398  
Growing Degree Days 30 (Base 50)    
Moisture  
Dew Point 71 °F    
Average Humidity 73    
Maximum Humidity 84    
Minimum Humidity 61    
Precipitation  
Precipitation 0.00 in 0.17 in 1.56 in (1954)
Month to date precipitation 3.04  
Year to date precipitation 21.97  
Sea Level Pressure  
Sea Level Pressure 29.95 in    
Wind  
Wind Speed 7 mph (South)    
Max Wind Speed 13 mph    
Max Gust Speed 22 mph    
T = Trace of Precipitation, MM = Missing Value Source: NWS Daily Summary

Daily Weather History Graph

Daily Weather History Graph

Search for Another Location

Airport:

Trip Planner

Search our weather history database for the weather conditions in past years. The results will help you decide how hot, cold, wet, or windy it might be!

Date:

Astronomy

Jul. 21, 2014 Rise Set
Actual Time 6:03 AM CDT 8:37 PM CDT
Civil Twilight 5:32 AM CDT 9:08 PM CDT
Nautical Twilight 4:53 AM CDT 9:47 PM CDT
Astronomical Twilight 4:09 AM CDT 10:30 PM CDT
Moon 1:54 AM CDT (7/21) 4:20 PM CDT (7/21)
Length of Visible Light 15h 36m
Length of Day
14h 34m
Waning Crescent, 24% of the Moon is Illuminated
Jul 21
Waning Crescent
Jul 26
New
Aug 3
First Quarter
Aug 10
Full
Aug 17
Last Quarter

Hourly Weather History & Observations

Time (CDT) Temp. Heat Index Dew Point Humidity Pressure Visibility Wind Dir Wind Speed Gust Speed Precip Events Conditions
12:52 AM 73.0 °F - 64.9 °F 76% 29.96 in - SSE 4.6 mph - N/A   Unknown
1:52 AM 71.1 °F - 64.9 °F 81% 29.95 in - SSE 3.5 mph - N/A   Unknown
2:52 AM 70.0 °F - 64.0 °F 81% 29.94 in - SSE 3.5 mph - N/A   Unknown
3:52 AM 70.0 °F - 64.0 °F 81% 29.94 in - SSE 3.5 mph - N/A   Unknown
4:52 AM 69.1 °F - 64.0 °F 84% 29.95 in - SSE 3.5 mph - N/A   Unknown
5:52 AM 69.1 °F - 64.0 °F 84% 29.96 in - South 3.5 mph - N/A   Unknown
6:52 AM 71.1 °F - 64.9 °F 81% 29.97 in - South 4.6 mph - N/A   Unknown
7:52 AM 73.9 °F - 66.9 °F 79% 29.98 in - South 5.8 mph - N/A   Unknown
8:52 AM 75.9 °F - 68.0 °F 76% 29.99 in - South 10.4 mph 18.4 mph N/A   Unknown
9:52 AM 79.0 °F - 70.0 °F 74% 29.97 in - South 11.5 mph - N/A   Unknown
10:52 AM 81.0 °F 84.9 °F 71.1 °F 72% 29.98 in - South 9.2 mph - N/A   Unknown
11:52 AM 84.0 °F 89.6 °F 72.0 °F 67% 29.96 in - SSW 12.7 mph 21.9 mph N/A   Unknown
12:52 PM 86.0 °F 93.8 °F 73.9 °F 67% 29.95 in - South 11.5 mph 20.7 mph N/A   Unknown
1:52 PM 88.0 °F 97.5 °F 75.0 °F 65% 29.95 in - South 12.7 mph - N/A   Unknown
2:52 PM 89.1 °F 99.1 °F 75.0 °F 63% 29.94 in - South 12.7 mph 18.4 mph N/A   Unknown
3:52 PM 91.0 °F 102.9 °F 75.9 °F 61% 29.93 in - South 12.7 mph 20.7 mph N/A   Unknown
4:52 PM 91.0 °F 102.9 °F 75.9 °F 61% 29.92 in - South 9.2 mph 19.6 mph N/A   Unknown
5:52 PM 90.0 °F 100.2 °F 75.0 °F 61% 29.91 in - South 12.7 mph - N/A   Unknown
6:52 PM 89.1 °F 99.1 °F 75.0 °F 63% 29.91 in - South 8.1 mph - N/A   Unknown
7:52 PM 86.0 °F 93.8 °F 73.9 °F 67% 29.91 in - South 8.1 mph - N/A   Unknown
8:52 PM 84.0 °F 91.9 °F 75.0 °F 74% 29.92 in - South 6.9 mph - N/A   Unknown
9:52 PM 82.9 °F 90.2 °F 75.0 °F 77% 29.94 in - SSE 5.8 mph - N/A   Unknown
10:52 PM 82.0 °F 88.6 °F 75.0 °F 79% 29.94 in - South 4.6 mph - N/A   Unknown
11:52 PM 81.0 °F 86.2 °F 73.9 °F 79% 29.94 in - SSE 6.9 mph - N/A   Unknown